Home   Weather   Hommelvik   Past weeks

Flag for Norway Past Weather in Hommelvik, Norway — Yesterday and Last 2 Weeks

Now
39 °F

Overcast.


Feels Like: 36 °F
Forecast: 33 / 53 °F
Wind: 3 mph from Southeast

Location: Trondheim / Vaernes

Current Time: May 1, 2017 at 8:38:02 am

Latest Report: May 1, 2017 at 8:00 am


Visibility: 19 mi

Pressure: 30.25 "Hg

Humidity: 91%

Dew Point: 36 °F

Location of HommelvikLocation

Past Weather in Hommelvik — Graph

°F

Hommelvik Temperature Yesterday

Maximum temperature yesterday: 47 °F (at 3:00 pm)
Minimum temperature yesterday: 29 °F (at 5:00 am)
Average temperature yesterday: 40 °F

High & Low Weather Summary for the Past Weeks

 TemperatureHumidityPressure
High50 °F (Apr 29, 6:00 pm)97% (Apr 21, 8:00 pm)30.51 "Hg (Apr 21, 8:00 pm)
Low26 °F (Apr 18, 6:00 am)33% (Apr 29, 6:00 pm)29.54 "Hg (Apr 21, 6:00 pm)
Average38 °F68%29.98 "Hg
* Reported Apr 16 7:00 am — May 1 7:00 am, Hommelvik, Weather by CustomWeather, © 2017

Note: Actual official high and low records may vary slightly from our data, if they occured in-between our weather recording intervals... More about our weather records

Advertising

Hommelvik Weather History for the Previous 24 Hours

Scroll right to see more
 ConditionsComfort  
Time TempWeatherWind HumidityBarometerVisibility
7:00 am
Mon, May 1
38 °FSunny.3 mph92%30.24 "Hg17 mi
6:00 am37 °FPartly sunny.3 mph93%30.23 "Hg16 mi
5:00 am38 °FOvercast.3 mph94%30.22 "Hg11 mi
4:00 am39 °FOvercast.2 mph90%30.21 "Hg16 mi
3:00 am39 °FRain. Overcast.5 mph86%30.20 "Hg10 mi
2:00 am42 °FOvercast.6 mph76%30.17 "Hg31 mi
1:00 am42 °FOvercast.2 mph75%30.17 "Hg28 mi
12:00 am42 °FOvercast.6 mph70%30.16 "Hg28 mi
11:00 pm
Sun, Apr 30
43 °FOvercast.9 mph68%30.15 "Hg25 mi
10:00 pm43 °FOvercast.8 mph66%30.14 "Hg31 mi
9:00 pm44 °FOvercast.7 mph65%30.12 "Hg28 mi
8:00 pm45 °FOvercast.7 mph58%30.11 "Hg31 mi
7:00 pm45 °FOvercast.9 mph69%30.10 "Hg22 mi
6:00 pm46 °FOvercast.10 mph63%30.10 "Hg28 mi
5:00 pm47 °FOvercast.9 mph55%30.10 "Hg31 mi
4:00 pm47 °FOvercast.10 mph56%30.09 "Hg25 mi
3:00 pm47 °FPartly sunny.9 mph60%30.09 "Hg25 mi
2:00 pm46 °FOvercast.6 mph64%30.09 "Hg5 mi
1:00 pm44 °FOvercast.1 mph69%30.10 "Hg22 mi
12:00 pm43 °FOvercast.2 mph62%30.11 "Hg25 mi
11:00 am41 °FOvercast.2 mph51%30.13 "Hg22 mi
10:00 am40 °FOvercast.1 mph50%30.14 "Hg31 mi
9:00 am39 °FScattered clouds.1 mph55%30.16 "Hg25 mi
8:00 am35 °FSunny.3 mph63%30.17 "Hg22 mi
Weather by CustomWeather, © 2017

See weather overviewHow to use our weather pages